Time,TemperatureF,DewpointF,PressureIn,WindDirection,WindDirectionDegrees,WindSpeedMPH,WindSpeedGustMPH,Humidity,HourlyPrecipIn,Conditions,Clouds,dailyrainin,SoftwareType,DateUTC
2013-01-06 00:02:00,46.4,18.1,27.53,East,90,1.8,4.3,32,0.00,,,0.00,WUHU216HW,2013-01-06 07:02:00,
2013-01-06 00:07:00,47.0,18.5,27.54,SSE,158,0.4,3.8,32,0.00,,,0.00,WUHU216HW,2013-01-06 07:07:00,
2013-01-06 00:12:00,46.6,18.3,27.54,SSE,158,2.2,2.5,32,0.00,,,0.00,WUHU216HW,2013-01-06 07:12:00,
2013-01-06 00:17:00,46.4,18.7,27.54,East,90,0.4,2.5,33,0.00,,,0.00,WUHU216HW,2013-01-06 07:17:00,
2013-01-06 00:22:00,46.1,18.5,27.53,ESE,113,0.7,2.0,33,0.00,,,0.00,WUHU216HW,2013-01-06 07:22:00,
2013-01-06 00:27:00,45.9,18.3,27.53,ENE,68,1.8,1.8,33,0.00,,,0.00,WUHU216HW,2013-01-06 07:27:00,
2013-01-06 00:32:00,45.7,18.7,27.53,SE,135,1.1,2.5,34,0.00,,,0.00,WUHU216HW,2013-01-06 07:32:00,
2013-01-06 00:37:00,45.4,17.7,27.53,SE,135,0.2,2.5,33,0.00,,,0.00,WUHU216HW,2013-01-06 07:37:00,
2013-01-06 00:42:00,45.2,17.7,27.53,East,90,0.9,1.8,33,0.00,,,0.00,WUHU216HW,2013-01-06 07:42:00,
2013-01-06 00:47:00,45.0,17.5,27.53,East,90,1.1,1.1,33,0.00,,,0.00,WUHU216HW,2013-01-06 07:47:00,
2013-01-06 00:52:00,44.8,17.3,27.53,East,90,0.2,1.1,33,0.00,,,0.00,WUHU216HW,2013-01-06 07:52:00,
2013-01-06 00:57:00,44.5,16.9,27.53,ESE,113,0.0,1.1,33,0.00,,,0.00,WUHU216HW,2013-01-06 07:57:00,
2013-01-06 01:02:00,44.1,18.0,27.53,ENE,68,0.4,0.7,35,0.00,,,0.00,WUHU216HW,2013-01-06 08:02:00,
2013-01-06 01:07:00,43.6,17.5,27.53,ENE,68,0.0,0.7,35,0.00,,,0.00,WUHU216HW,2013-01-06 08:07:00,
2013-01-06 01:12:00,43.2,17.2,27.52,NE,45,0.7,1.6,35,0.00,,,0.00,WUHU216HW,2013-01-06 08:12:00,
2013-01-06 01:17:00,43.4,18.0,27.53,ESE,113,0.4,1.6,36,0.00,,,0.00,WUHU216HW,2013-01-06 08:17:00,
2013-01-06 01:22:00,43.7,18.3,27.53,SSE,158,1.1,1.8,36,0.00,,,0.00,WUHU216HW,2013-01-06 08:22:00,
2013-01-06 01:27:00,44.6,18.5,27.53,SE,135,2.5,3.4,35,0.00,,,0.00,WUHU216HW,2013-01-06 08:27:00,
2013-01-06 01:32:00,45.4,19.1,27.53,SE,135,0.7,3.4,35,0.00,,,0.00,WUHU216HW,2013-01-06 08:32:00,
2013-01-06 01:37:00,44.8,18.6,27.53,SSE,158,0.7,2.5,35,0.00,,,0.00,WUHU216HW,2013-01-06 08:37:00,
2013-01-06 01:42:00,44.3,18.8,27.53,East,90,2.5,2.5,36,0.00,,,0.00,WUHU216HW,2013-01-06 08:42:00,
2013-01-06 01:47:00,44.1,18.6,27.53,ENE,68,0.9,3.1,36,0.00,,,0.00,WUHU216HW,2013-01-06 08:47:00,
2013-01-06 01:52:00,44.3,18.8,27.53,SE,135,0.9,3.1,36,0.00,,,0.00,WUHU216HW,2013-01-06 08:52:00,
2013-01-06 01:57:00,44.3,18.1,27.52,ESE,113,3.4,4.0,35,0.00,,,0.00,WUHU216HW,2013-01-06 08:57:00,
2013-01-06 02:02:00,46.1,18.5,27.53,South,180,4.7,6.9,33,0.00,,,0.00,WUHU216HW,2013-01-06 09:02:00,
2013-01-06 02:07:00,47.2,19.4,27.53,SSW,203,2.0,6.9,33,0.00,,,0.00,WUHU216HW,2013-01-06 09:07:00,
2013-01-06 02:12:00,46.6,18.9,27.53,SW,225,2.5,4.7,33,0.00,,,0.00,WUHU216HW,2013-01-06 09:12:00,
2013-01-06 02:17:00,45.5,18.6,27.53,East,90,2.0,3.4,34,0.00,,,0.00,WUHU216HW,2013-01-06 09:17:00,
2013-01-06 02:22:00,44.6,18.5,27.53,SE,135,3.1,4.3,35,0.00,,,0.00,WUHU216HW,2013-01-06 09:22:00,
2013-01-06 02:27:00,44.3,18.8,27.53,ESE,113,2.9,4.3,36,0.00,,,0.00,WUHU216HW,2013-01-06 09:27:00,
2013-01-06 02:32:00,44.8,18.6,27.52,East,90,4.0,6.9,35,0.00,,,0.00,WUHU216HW,2013-01-06 09:32:00,
2013-01-06 02:37:00,45.9,18.3,27.53,ESE,113,4.0,6.9,33,0.00,,,0.00,WUHU216HW,2013-01-06 09:37:00,
2013-01-06 02:42:00,45.9,18.3,27.53,SE,135,1.8,4.7,33,0.00,,,0.00,WUHU216HW,2013-01-06 09:42:00,
2013-01-06 02:47:00,45.4,19.1,27.53,ESE,113,3.6,4.0,35,0.00,,,0.00,WUHU216HW,2013-01-06 09:47:00,
2013-01-06 02:52:00,44.8,18.6,27.53,ESE,113,3.8,3.8,35,0.00,,,0.00,WUHU216HW,2013-01-06 09:52:00,
2013-01-06 02:57:00,44.6,19.1,27.53,SE,135,2.5,4.5,36,0.00,,,0.00,WUHU216HW,2013-01-06 09:57:00,
2013-01-06 03:02:00,44.6,19.1,27.52,SE,135,2.7,4.5,36,0.00,,,0.00,WUHU216HW,2013-01-06 10:02:00,
2013-01-06 03:07:00,44.8,19.3,27.52,ESE,113,2.5,4.0,36,0.00,,,0.00,WUHU216HW,2013-01-06 10:07:00,
2013-01-06 03:12:00,44.8,18.6,27.52,ESE,113,1.1,3.8,35,0.00,,,0.00,WUHU216HW,2013-01-06 10:12:00,
2013-01-06 03:17:00,44.6,19.1,27.53,SE,135,1.8,3.1,36,0.00,,,0.00,WUHU216HW,2013-01-06 10:17:00,
2013-01-06 03:22:00,44.5,19.0,27.52,ESE,113,2.5,2.9,36,0.00,,,0.00,WUHU216HW,2013-01-06 10:22:00,
2013-01-06 03:27:00,44.5,19.0,27.52,ESE,113,2.2,3.1,36,0.00,,,0.00,WUHU216HW,2013-01-06 10:27:00,
2013-01-06 03:32:00,44.3,18.8,27.52,SE,135,1.1,3.1,36,0.00,,,0.00,WUHU216HW,2013-01-06 10:32:00,
2013-01-06 03:37:00,44.5,19.0,27.52,ESE,113,0.7,3.4,36,0.00,,,0.00,WUHU216HW,2013-01-06 10:37:00,
2013-01-06 03:42:00,45.0,19.4,27.51,ESE,113,2.2,3.4,36,0.00,,,0.00,WUHU216HW,2013-01-06 10:42:00,
2013-01-06 03:47:00,45.5,19.3,27.51,ESE,113,2.7,3.8,35,0.00,,,0.00,WUHU216HW,2013-01-06 10:47:00,
2013-01-06 03:52:00,45.7,19.5,27.51,SE,135,1.1,3.8,35,0.00,,,0.00,WUHU216HW,2013-01-06 10:52:00,
2013-01-06 03:57:00,45.4,19.1,27.51,SE,135,2.2,2.9,35,0.00,,,0.00,WUHU216HW,2013-01-06 10:57:00,
2013-01-06 04:02:00,46.4,18.7,27.51,ESE,113,2.5,5.6,33,0.00,,,0.00,WUHU216HW,2013-01-06 11:02:00,
2013-01-06 04:07:00,47.3,19.5,27.51,East,90,3.4,5.6,33,0.00,,,0.00,WUHU216HW,2013-01-06 11:07:00,
2013-01-06 04:12:00,47.9,20.1,27.50,ESE,113,4.5,5.6,33,0.00,,,0.00,WUHU216HW,2013-01-06 11:12:00,
2013-01-06 04:17:00,47.7,19.9,27.50,East,90,3.1,5.6,33,0.00,,,0.00,WUHU216HW,2013-01-06 11:17:00,
2013-01-06 04:22:00,47.5,19.7,27.50,NE,45,4.0,5.4,33,0.00,,,0.00,WUHU216HW,2013-01-06 11:22:00,
2013-01-06 04:27:00,47.2,19.4,27.50,ENE,68,4.7,7.6,33,0.00,,,0.00,WUHU216HW,2013-01-06 11:27:00,
2013-01-06 04:32:00,47.2,19.4,27.50,NNE,23,4.0,7.6,33,0.00,,,0.00,WUHU216HW,2013-01-06 11:32:00,
2013-01-06 04:37:00,47.2,19.4,27.50,NNE,23,4.7,6.3,33,0.00,,,0.00,WUHU216HW,2013-01-06 11:37:00,
2013-01-06 04:42:00,47.0,18.5,27.49,SSE,158,2.2,6.3,32,0.00,,,0.00,WUHU216HW,2013-01-06 11:42:00,
2013-01-06 04:47:00,47.2,18.7,27.49,ESE,113,5.8,8.5,32,0.00,,,0.00,WUHU216HW,2013-01-06 11:47:00,
2013-01-06 04:52:00,47.7,18.5,27.49,ENE,68,6.0,10.1,31,0.00,,,0.00,WUHU216HW,2013-01-06 11:52:00,
2013-01-06 04:57:00,48.1,18.9,27.49,East,90,4.7,10.1,31,0.00,,,0.00,WUHU216HW,2013-01-06 11:57:00,
2013-01-06 05:02:00,48.2,18.4,27.49,ESE,113,4.7,8.3,30,0.00,,,0.00,WUHU216HW,2013-01-06 12:02:00,
2013-01-06 05:07:00,48.2,18.4,27.48,ESE,113,6.5,8.3,30,0.00,,,0.00,WUHU216HW,2013-01-06 12:07:00,
2013-01-06 05:12:00,48.2,18.4,27.48,South,180,7.6,8.5,30,0.00,,,0.00,WUHU216HW,2013-01-06 12:12:00,
2013-01-06 05:17:00,48.1,18.2,27.48,SE,135,10.5,10.5,30,0.00,,,0.00,WUHU216HW,2013-01-06 12:17:00,
2013-01-06 05:22:00,48.1,18.2,27.48,SE,135,6.3,10.5,30,0.00,,,0.00,WUHU216HW,2013-01-06 12:22:00,
2013-01-06 05:27:00,48.2,18.4,27.48,SSW,203,7.8,10.5,30,0.00,,,0.00,WUHU216HW,2013-01-06 12:27:00,
2013-01-06 05:32:00,48.2,18.4,27.49,ENE,68,4.7,9.4,30,0.00,,,0.00,WUHU216HW,2013-01-06 12:32:00,
2013-01-06 05:37:00,48.1,18.2,27.49,East,90,7.8,8.9,30,0.00,,,0.00,WUHU216HW,2013-01-06 12:37:00,
2013-01-06 05:42:00,48.1,18.2,27.49,SE,135,4.5,8.9,30,0.00,,,0.00,WUHU216HW,2013-01-06 12:42:00,
2013-01-06 05:47:00,48.2,18.4,27.49,SE,135,7.6,10.1,30,0.00,,,0.00,WUHU216HW,2013-01-06 12:47:00,
2013-01-06 05:52:00,48.4,18.6,27.49,East,90,6.3,10.1,30,0.00,,,0.00,WUHU216HW,2013-01-06 12:52:00,
2013-01-06 05:57:00,48.6,17.7,27.48,ESE,113,9.2,9.8,29,0.00,,,0.00,WUHU216HW,2013-01-06 12:57:00,
2013-01-06 06:02:00,48.6,18.6,27.48,ESE,113,5.6,9.8,30,0.00,,,0.00,WUHU216HW,2013-01-06 13:02:00,
2013-01-06 06:07:00,48.6,18.6,27.48,NNE,23,5.1,9.6,30,0.00,,,0.00,WUHU216HW,2013-01-06 13:07:00,
2013-01-06 06:12:00,48.6,17.7,27.48,East,90,4.9,9.6,29,0.00,,,0.00,WUHU216HW,2013-01-06 13:12:00,
2013-01-06 06:17:00,48.6,17.7,27.48,North,0,4.7,9.6,29,0.00,,,0.00,WUHU216HW,2013-01-06 13:17:00,
2013-01-06 06:22:00,48.6,17.7,27.49,NE,45,8.5,9.6,29,0.00,,,0.00,WUHU216HW,2013-01-06 13:22:00,
2013-01-06 06:27:00,48.8,17.8,27.49,North,0,8.3,8.5,29,0.00,,,0.00,WUHU216HW,2013-01-06 13:27:00,
2013-01-06 06:32:00,49.0,17.1,27.49,East,90,9.2,11.6,28,0.00,,,0.00,WUHU216HW,2013-01-06 13:32:00,
2013-01-06 06:37:00,49.3,17.4,27.49,ESE,113,3.1,11.6,28,0.00,,,0.00,WUHU216HW,2013-01-06 13:37:00,
2013-01-06 06:42:00,49.3,16.5,27.49,NE,45,5.4,9.8,27,0.00,,,0.00,WUHU216HW,2013-01-06 13:42:00,
2013-01-06 06:47:00,49.3,16.5,27.49,East,90,4.5,9.2,27,0.00,,,0.00,WUHU216HW,2013-01-06 13:47:00,
2013-01-06 06:52:00,49.3,16.5,27.49,ENE,68,6.3,7.2,27,0.00,,,0.00,WUHU216HW,2013-01-06 13:52:00,
2013-01-06 06:57:00,49.1,16.3,27.48,NNE,23,6.9,8.7,27,0.00,,,0.00,WUHU216HW,2013-01-06 13:57:00,
2013-01-06 07:02:00,49.1,17.2,27.48,ESE,113,11.2,11.9,28,0.00,,,0.00,WUHU216HW,2013-01-06 14:02:00,
2013-01-06 07:07:00,49.0,17.1,27.48,SE,135,8.5,11.9,28,0.00,,,0.00,WUHU216HW,2013-01-06 14:07:00,
2013-01-06 07:12:00,49.0,17.1,27.48,SE,135,6.5,11.6,28,0.00,,,0.00,WUHU216HW,2013-01-06 14:12:00,
2013-01-06 07:17:00,49.0,17.1,27.48,East,90,9.4,11.6,28,0.00,,,0.00,WUHU216HW,2013-01-06 14:17:00,
2013-01-06 07:22:00,49.0,18.0,27.49,ENE,68,8.7,11.4,29,0.00,,,0.00,WUHU216HW,2013-01-06 14:22:00,
2013-01-06 07:27:00,48.6,17.7,27.49,NE,45,4.5,10.5,29,0.00,,,0.00,WUHU216HW,2013-01-06 14:27:00,
2013-01-06 07:32:00,48.4,17.6,27.49,SE,135,6.3,10.5,29,0.00,,,0.00,WUHU216HW,2013-01-06 14:32:00,
2013-01-06 07:37:00,48.4,17.6,27.49,ESE,113,11.0,11.0,29,0.00,,,0.00,WUHU216HW,2013-01-06 14:37:00,
2013-01-06 07:42:00,48.6,17.7,27.49,SE,135,4.9,11.0,29,0.00,,,0.00,WUHU216HW,2013-01-06 14:42:00,
2013-01-06 07:47:00,48.6,16.7,27.48,SE,135,10.5,11.6,28,0.00,,,0.00,WUHU216HW,2013-01-06 14:47:00,
2013-01-06 07:52:00,49.0,17.1,27.49,SSE,158,6.3,12.1,28,0.00,,,0.00,WUHU216HW,2013-01-06 14:52:00,
2013-01-06 07:57:00,49.0,17.1,27.49,NE,45,6.7,12.1,28,0.00,,,0.00,WUHU216HW,2013-01-06 14:57:00,
2013-01-06 08:02:00,49.3,17.4,27.49,SE,135,3.8,9.8,28,0.00,,,0.00,WUHU216HW,2013-01-06 15:02:00,
2013-01-06 08:07:00,49.3,17.4,27.49,SE,135,7.8,9.8,28,0.00,,,0.00,WUHU216HW,2013-01-06 15:07:00,
2013-01-06 08:12:00,49.5,17.6,27.50,SSE,158,4.7,9.8,28,0.00,,,0.00,WUHU216HW,2013-01-06 15:12:00,
2013-01-06 08:17:00,49.7,17.6,27.50,East,90,10.1,10.5,28,0.00,,,0.00,WUHU216HW,2013-01-06 15:17:00,
2013-01-06 08:22:00,49.7,17.6,27.50,East,90,5.6,10.5,28,0.00,,,0.00,WUHU216HW,2013-01-06 15:22:00,
2013-01-06 08:27:00,49.9,17.8,27.50,ESE,113,4.0,9.4,28,0.00,,,0.00,WUHU216HW,2013-01-06 15:27:00,
2013-01-06 08:32:00,50.0,18.0,27.50,SW,225,6.3,10.3,28,0.00,,,0.00,WUHU216HW,2013-01-06 15:32:00,
2013-01-06 08:37:00,50.2,18.1,27.50,SE,135,7.6,10.3,28,0.00,,,0.00,WUHU216HW,2013-01-06 15:37:00,
2013-01-06 08:42:00,50.0,18.0,27.50,NE,45,3.4,11.4,28,0.00,,,0.00,WUHU216HW,2013-01-06 15:42:00,
2013-01-06 08:47:00,50.0,18.0,27.50,SSE,158,3.6,11.4,28,0.00,,,0.00,WUHU216HW,2013-01-06 15:47:00,
2013-01-06 08:52:00,50.2,18.1,27.51,ESE,113,2.9,8.1,28,0.00,,,0.00,WUHU216HW,2013-01-06 15:52:00,
2013-01-06 08:57:00,50.6,17.6,27.51,East,90,6.3,7.8,27,0.00,,,0.00,WUHU216HW,2013-01-06 15:57:00,
2013-01-06 09:02:00,50.9,17.8,27.50,ENE,68,4.7,7.8,27,0.00,,,0.00,WUHU216HW,2013-01-06 16:02:00,
2013-01-06 09:07:00,51.3,17.2,27.50,East,90,6.0,9.8,26,0.00,,,0.00,WUHU216HW,2013-01-06 16:07:00,
2013-01-06 09:12:00,51.8,16.7,27.51,ESE,113,6.7,9.8,25,0.00,,,0.00,WUHU216HW,2013-01-06 16:12:00,
2013-01-06 09:17:00,52.4,17.2,27.51,East,90,5.1,8.5,25,0.00,,,0.00,WUHU216HW,2013-01-06 16:17:00,
2013-01-06 09:22:00,52.9,16.8,27.51,ENE,68,5.4,8.3,24,0.00,,,0.00,WUHU216HW,2013-01-06 16:22:00,
2013-01-06 09:27:00,53.3,17.0,27.51,ESE,113,5.6,9.6,24,0.00,,,0.00,WUHU216HW,2013-01-06 16:27:00,
2013-01-06 09:32:00,53.6,17.3,27.51,NE,45,6.9,9.6,24,0.00,,,0.00,WUHU216HW,2013-01-06 16:32:00,
2013-01-06 09:37:00,53.6,17.3,27.50,SSE,158,7.2,9.4,24,0.00,,,0.00,WUHU216HW,2013-01-06 16:37:00,
2013-01-06 09:42:00,53.8,17.5,27.51,ESE,113,4.0,9.4,24,0.00,,,0.00,WUHU216HW,2013-01-06 16:42:00,
2013-01-06 09:47:00,54.2,17.8,27.51,East,90,6.0,8.7,24,0.00,,,0.00,WUHU216HW,2013-01-06 16:47:00,
2013-01-06 09:52:00,54.4,17.9,27.51,ENE,68,5.6,8.9,24,0.00,,,0.00,WUHU216HW,2013-01-06 16:52:00,
2013-01-06 09:57:00,55.1,18.5,27.50,East,90,5.4,10.1,24,0.00,,,0.00,WUHU216HW,2013-01-06 16:57:00,
2013-01-06 10:02:00,55.8,19.2,27.50,ESE,113,4.7,10.1,24,0.00,,,0.00,WUHU216HW,2013-01-06 17:02:00,
2013-01-06 10:07:00,56.3,18.7,27.50,North,0,4.7,9.8,23,0.00,,,0.00,WUHU216HW,2013-01-06 17:07:00,
2013-01-06 10:12:00,57.1,18.4,27.50,SE,135,6.5,9.8,22,0.00,,,0.00,WUHU216HW,2013-01-06 17:12:00,
2013-01-06 10:17:00,57.2,18.5,27.50,ESE,113,6.7,9.8,22,0.00,,,0.00,WUHU216HW,2013-01-06 17:17:00,
2013-01-06 10:22:00,57.6,18.7,27.50,East,90,5.4,9.8,22,0.00,,,0.00,WUHU216HW,2013-01-06 17:22:00,
2013-01-06 10:27:00,57.6,17.8,27.50,NE,45,4.7,9.2,21,0.00,,,0.00,WUHU216HW,2013-01-06 17:27:00,
2013-01-06 10:32:00,58.1,18.3,27.50,NE,45,3.8,9.2,21,0.00,,,0.00,WUHU216HW,2013-01-06 17:32:00,
2013-01-06 10:37:00,59.0,19.0,27.49,SSE,158,8.9,8.9,21,0.00,,,0.00,WUHU216HW,2013-01-06 17:37:00,
2013-01-06 10:42:00,59.6,19.4,27.49,SE,135,6.9,9.2,21,0.00,,,0.00,WUHU216HW,2013-01-06 17:42:00,
2013-01-06 10:47:00,60.3,20.1,27.49,ENE,68,6.0,9.4,21,0.00,,,0.00,WUHU216HW,2013-01-06 17:47:00,
2013-01-06 10:52:00,61.0,18.2,27.48,ESE,113,6.7,9.4,19,0.00,,,0.00,WUHU216HW,2013-01-06 17:52:00,
2013-01-06 10:57:00,62.1,19.1,27.48,East,90,4.3,9.2,19,0.00,,,0.00,WUHU216HW,2013-01-06 17:57:00,
2013-01-06 11:02:00,63.0,19.8,27.48,NNE,23,6.9,9.2,19,0.00,,,0.00,WUHU216HW,2013-01-06 18:02:00,
2013-01-06 11:07:00,63.2,18.4,27.47,ESE,113,5.4,10.5,18,0.00,,,0.00,WUHU216HW,2013-01-06 18:07:00,
2013-01-06 11:12:00,63.4,18.5,27.47,East,90,6.3,10.5,18,0.00,,,0.00,WUHU216HW,2013-01-06 18:12:00,
2013-01-06 11:17:00,63.4,18.5,27.47,East,90,6.0,10.3,18,0.00,,,0.00,WUHU216HW,2013-01-06 18:17:00,
2013-01-06 11:22:00,63.7,20.3,27.46,East,90,5.6,10.5,19,0.00,,,0.00,WUHU216HW,2013-01-06 18:22:00,
2013-01-06 11:27:00,63.7,18.8,27.46,ESE,113,7.6,10.5,18,0.00,,,0.00,WUHU216HW,2013-01-06 18:27:00,
2013-01-06 11:32:00,64.1,19.1,27.46,SSE,158,4.0,8.9,18,0.00,,,0.00,WUHU216HW,2013-01-06 18:32:00,
2013-01-06 11:37:00,64.6,21.1,27.46,ESE,113,3.8,8.9,19,0.00,,,0.00,WUHU216HW,2013-01-06 18:37:00,
2013-01-06 11:42:00,65.2,19.9,27.45,NE,45,8.7,8.7,18,0.00,,,0.00,WUHU216HW,2013-01-06 18:42:00,
2013-01-06 11:47:00,65.0,19.8,27.45,ENE,68,5.4,8.7,18,0.00,,,0.00,WUHU216HW,2013-01-06 18:47:00,
2013-01-06 11:52:00,64.6,19.4,27.44,North,0,4.0,8.7,18,0.00,,,0.00,WUHU216HW,2013-01-06 18:52:00,
2013-01-06 11:57:00,64.6,19.4,27.44,ENE,68,6.5,7.6,18,0.00,,,0.00,WUHU216HW,2013-01-06 18:57:00,
2013-01-06 12:02:00,64.8,19.6,27.43,East,90,6.9,9.2,18,0.00,,,0.00,WUHU216HW,2013-01-06 19:02:00,
2013-01-06 12:07:00,65.2,19.9,27.43,East,90,4.3,9.2,18,0.00,,,0.00,WUHU216HW,2013-01-06 19:07:00,
2013-01-06 12:12:00,65.3,20.1,27.43,ESE,113,5.1,8.3,18,0.00,,,0.00,WUHU216HW,2013-01-06 19:12:00,
2013-01-06 12:17:00,65.2,18.4,27.43,East,90,6.3,8.5,17,0.00,,,0.00,WUHU216HW,2013-01-06 19:17:00,
2013-01-06 12:22:00,65.2,19.9,27.42,ESE,113,4.0,8.9,18,0.00,,,0.00,WUHU216HW,2013-01-06 19:22:00,
2013-01-06 12:27:00,65.5,20.2,27.41,SE,135,4.7,8.9,18,0.00,,,0.00,WUHU216HW,2013-01-06 19:27:00,
2013-01-06 12:32:00,65.5,18.6,27.41,ENE,68,6.0,8.5,17,0.00,,,0.00,WUHU216HW,2013-01-06 19:32:00,
2013-01-06 12:37:00,65.2,18.4,27.40,SE,135,7.4,8.5,17,0.00,,,0.00,WUHU216HW,2013-01-06 19:37:00,
2013-01-06 12:47:00,65.9,18.9,27.40,East,90,2.9,8.1,17,0.00,,,0.00,WUHU216HW,2013-01-06 19:47:00,
2013-01-06 12:52:00,65.9,18.9,27.40,ESE,113,4.7,6.9,17,0.00,,,0.00,WUHU216HW,2013-01-06 19:52:00,
2013-01-06 12:57:00,65.9,18.9,27.40,ESE,113,2.9,6.7,17,0.00,,,0.00,WUHU216HW,2013-01-06 19:57:00,
2013-01-06 13:03:00,65.9,18.9,27.40,East,90,2.7,6.3,17,0.00,,,0.00,WUHU216HW,2013-01-06 20:03:00,
2013-01-06 13:08:00,65.9,18.9,27.39,East,90,3.6,6.3,17,0.00,,,0.00,WUHU216HW,2013-01-06 20:08:00,
2013-01-06 13:11:00,65.9,18.9,27.39,East,90,3.4,6.3,17,0.00,,,0.00,WUHU216HW,2013-01-06 20:11:00,
2013-01-06 13:13:00,65.9,18.9,27.39,East,90,5.4,6.0,17,0.00,,,0.00,WUHU216HW,2013-01-06 20:13:00,
2013-01-06 13:18:00,65.9,18.9,27.39,ESE,113,4.3,6.9,17,0.00,,,0.00,WUHU216HW,2013-01-06 20:18:00,
2013-01-06 13:23:00,66.1,19.1,27.38,ESE,113,4.5,6.9,17,0.00,,,0.00,WUHU216HW,2013-01-06 20:23:00,
2013-01-06 13:28:00,66.1,19.1,27.39,ENE,68,4.0,5.6,17,0.00,,,0.00,WUHU216HW,2013-01-06 20:28:00,
2013-01-06 13:33:00,66.2,19.2,27.38,ENE,68,4.0,5.8,17,0.00,,,0.00,WUHU216HW,2013-01-06 20:33:00,
2013-01-06 13:38:00,66.1,19.1,27.38,East,90,4.5,6.9,17,0.00,,,0.00,WUHU216HW,2013-01-06 20:38:00,
2013-01-06 13:43:00,66.1,19.1,27.38,East,90,3.4,6.9,17,0.00,,,0.00,WUHU216HW,2013-01-06 20:43:00,
2013-01-06 13:48:00,66.2,19.2,27.37,NNW,338,2.5,5.8,17,0.00,,,0.00,WUHU216HW,2013-01-06 20:48:00,
2013-01-06 13:53:00,66.1,19.1,27.37,ESE,113,4.7,7.6,17,0.00,,,0.00,WUHU216HW,2013-01-06 20:53:00,
2013-01-06 13:58:00,65.9,18.9,27.37,NE,45,4.7,7.6,17,0.00,,,0.00,WUHU216HW,2013-01-06 20:58:00,
2013-01-06 14:00:00,65.9,18.9,27.37,NE,45,5.4,7.6,17,0.00,,,0.00,WUHU216HW,2013-01-06 21:00:00,
2013-01-06 14:05:00,65.5,18.6,27.37,East,90,5.1,6.7,17,0.00,,,0.00,WUHU216HW,2013-01-06 21:05:00,
2013-01-06 14:10:00,65.7,20.3,27.37,SSE,158,5.1,6.7,18,0.00,,,0.00,WUHU216HW,2013-01-06 21:10:00,
2013-01-06 14:15:00,65.9,20.5,27.37,ESE,113,2.5,6.5,18,0.00,,,0.00,WUHU216HW,2013-01-06 21:15:00,
2013-01-06 14:20:00,66.2,19.2,27.37,ENE,68,2.0,6.3,17,0.00,,,0.00,WUHU216HW,2013-01-06 21:20:00,
2013-01-06 14:25:00,66.4,21.0,27.36,NE,45,3.6,5.4,18,0.00,,,0.00,WUHU216HW,2013-01-06 21:25:00,
2013-01-06 14:30:00,66.6,19.5,27.36,ENE,68,2.5,6.0,17,0.00,,,0.00,WUHU216HW,2013-01-06 21:30:00,
2013-01-06 14:35:00,66.8,19.6,27.36,South,180,2.2,6.0,17,0.00,,,0.00,WUHU216HW,2013-01-06 21:35:00,
2013-01-06 14:40:00,66.6,19.5,27.35,ENE,68,4.0,7.2,17,0.00,,,0.00,WUHU216HW,2013-01-06 21:40:00,
2013-01-06 14:45:00,66.8,19.6,27.35,ESE,113,7.4,7.4,17,0.00,,,0.00,WUHU216HW,2013-01-06 21:45:00,
2013-01-06 14:50:00,66.6,19.5,27.34,ENE,68,4.0,7.6,17,0.00,,,0.00,WUHU216HW,2013-01-06 21:50:00,
2013-01-06 14:55:00,66.4,19.4,27.35,East,90,1.8,7.6,17,0.00,,,0.00,WUHU216HW,2013-01-06 21:55:00,
2013-01-06 15:00:00,66.4,19.4,27.34,ESE,113,2.7,7.2,17,0.00,,,0.00,WUHU216HW,2013-01-06 22:00:00,
2013-01-06 15:05:00,66.4,19.4,27.33,East,90,9.6,9.6,17,0.00,,,0.00,WUHU216HW,2013-01-06 22:05:00,
2013-01-06 15:10:00,66.4,21.0,27.34,East,90,5.8,9.6,18,0.00,,,0.00,WUHU216HW,2013-01-06 22:10:00,
2013-01-06 15:15:00,66.4,19.4,27.33,ESE,113,6.9,9.6,17,0.00,,,0.00,WUHU216HW,2013-01-06 22:15:00,
2013-01-06 15:20:00,66.2,19.2,27.33,ENE,68,2.5,8.5,17,0.00,,,0.00,WUHU216HW,2013-01-06 22:20:00,
2013-01-06 15:25:00,66.1,19.1,27.33,East,90,4.0,8.5,17,0.00,,,0.00,WUHU216HW,2013-01-06 22:25:00,
2013-01-06 15:30:00,66.1,19.1,27.33,ESE,113,1.8,7.6,17,0.00,,,0.00,WUHU216HW,2013-01-06 22:30:00,
2013-01-06 15:35:00,65.9,18.9,27.33,ESE,113,3.8,7.6,17,0.00,,,0.00,WUHU216HW,2013-01-06 22:35:00,
2013-01-06 15:40:00,65.9,20.5,27.33,ENE,68,2.9,6.3,18,0.00,,,0.00,WUHU216HW,2013-01-06 22:40:00,
2013-01-06 15:45:00,65.7,20.3,27.33,East,90,4.3,5.8,18,0.00,,,0.00,WUHU216HW,2013-01-06 22:45:00,
2013-01-06 15:50:00,65.5,20.2,27.33,East,90,3.4,6.3,18,0.00,,,0.00,WUHU216HW,2013-01-06 22:50:00,
2013-01-06 15:55:00,65.3,20.1,27.33,ENE,68,4.0,7.2,18,0.00,,,0.00,WUHU216HW,2013-01-06 22:55:00,
2013-01-06 16:00:00,65.2,19.9,27.33,NE,45,4.3,7.2,18,0.00,,,0.00,WUHU216HW,2013-01-06 23:00:00,
2013-01-06 16:05:00,65.2,19.9,27.32,East,90,2.0,5.6,18,0.00,,,0.00,WUHU216HW,2013-01-06 23:05:00,
2013-01-06 16:10:00,65.0,19.8,27.32,ESE,113,2.7,4.7,18,0.00,,,0.00,WUHU216HW,2013-01-06 23:10:00,
2013-01-06 16:15:00,65.0,19.8,27.32,ESE,113,4.0,7.8,18,0.00,,,0.00,WUHU216HW,2013-01-06 23:15:00,
2013-01-06 16:20:00,64.8,19.6,27.32,ENE,68,2.9,7.8,18,0.00,,,0.00,WUHU216HW,2013-01-06 23:20:00,
2013-01-06 16:25:00,64.8,19.6,27.32,ESE,113,3.4,4.0,18,0.00,,,0.00,WUHU216HW,2013-01-06 23:25:00,
2013-01-06 16:30:00,65.0,19.8,27.32,NNE,23,3.4,4.7,18,0.00,,,0.00,WUHU216HW,2013-01-06 23:30:00,
2013-01-06 16:35:00,65.3,20.1,27.32,ESE,113,2.5,5.4,18,0.00,,,0.00,WUHU216HW,2013-01-06 23:35:00,
2013-01-06 16:40:00,65.7,20.3,27.33,East,90,4.0,5.4,18,0.00,,,0.00,WUHU216HW,2013-01-06 23:40:00,
2013-01-06 16:45:00,65.9,20.5,27.33,SSE,158,3.1,7.4,18,0.00,,,0.00,WUHU216HW,2013-01-06 23:45:00,
2013-01-06 16:50:00,66.2,20.8,27.32,East,90,4.7,7.4,18,0.00,,,0.00,WUHU216HW,2013-01-06 23:50:00,
2013-01-06 16:55:00,66.2,20.8,27.32,SE,135,4.0,6.3,18,0.00,,,0.00,WUHU216HW,2013-01-06 23:55:00,
2013-01-06 17:00:00,65.5,20.2,27.32,ENE,68,2.7,6.9,18,0.00,,,0.00,WUHU216HW,2013-01-07 00:00:00,
2013-01-06 17:05:00,65.2,19.9,27.32,ENE,68,3.4,6.9,18,0.00,,,0.00,WUHU216HW,2013-01-07 00:05:00,
2013-01-06 17:10:00,65.0,19.8,27.32,SE,135,3.4,5.8,18,0.00,,,0.00,WUHU216HW,2013-01-07 00:10:00,
2013-01-06 17:15:00,64.6,19.4,27.32,ESE,113,5.4,5.4,18,0.00,,,0.00,WUHU216HW,2013-01-07 00:15:00,
2013-01-06 17:20:00,64.4,20.9,27.31,ESE,113,3.8,5.4,19,0.00,,,0.00,WUHU216HW,2013-01-07 00:20:00,
2013-01-06 17:25:00,63.9,20.5,27.32,ESE,113,3.1,5.4,19,0.00,,,0.00,WUHU216HW,2013-01-07 00:25:00,
2013-01-06 17:30:00,63.5,20.2,27.32,ENE,68,1.6,4.7,19,0.00,,,0.00,WUHU216HW,2013-01-07 00:30:00,
2013-01-06 17:35:00,63.0,19.8,27.32,NE,45,2.0,4.5,19,0.00,,,0.00,WUHU216HW,2013-01-07 00:35:00,
2013-01-06 17:40:00,62.5,21.9,27.32,ESE,113,2.2,3.4,21,0.00,,,0.00,WUHU216HW,2013-01-07 00:40:00,
2013-01-06 17:45:00,61.9,21.4,27.32,East,90,3.4,3.4,21,0.00,,,0.00,WUHU216HW,2013-01-07 00:45:00,
2013-01-06 17:50:00,61.4,21.0,27.31,SE,135,2.7,3.4,21,0.00,,,0.00,WUHU216HW,2013-01-07 00:50:00,
2013-01-06 17:56:00,60.8,20.6,27.31,East,90,0.7,3.4,21,0.00,,,0.00,WUHU216HW,2013-01-07 00:56:00,
2013-01-06 18:00:00,60.7,20.4,27.31,ESE,113,2.0,3.4,21,0.00,,,0.00,WUHU216HW,2013-01-07 01:00:00,
2013-01-06 18:05:00,60.3,20.1,27.31,ESE,113,3.6,4.7,21,0.00,,,0.00,WUHU216HW,2013-01-07 01:05:00,
2013-01-06 18:10:00,60.1,19.9,27.30,ENE,68,3.8,4.7,21,0.00,,,0.00,WUHU216HW,2013-01-07 01:10:00,
2013-01-06 18:15:00,59.8,20.6,27.31,ESE,113,4.0,5.4,22,0.00,,,0.00,WUHU216HW,2013-01-07 01:15:00,
2013-01-06 18:20:00,59.6,20.4,27.31,East,90,3.6,5.4,22,0.00,,,0.00,WUHU216HW,2013-01-07 01:20:00,
2013-01-06 18:25:00,59.4,20.3,27.31,ESE,113,2.9,4.3,22,0.00,,,0.00,WUHU216HW,2013-01-07 01:25:00,
2013-01-06 18:30:00,59.4,20.3,27.31,East,90,1.3,5.4,22,0.00,,,0.00,WUHU216HW,2013-01-07 01:30:00,
2013-01-06 18:35:00,59.0,20.0,27.31,ESE,113,3.8,5.4,22,0.00,,,0.00,WUHU216HW,2013-01-07 01:35:00,
2013-01-06 18:40:00,59.0,20.9,27.31,East,90,1.8,6.3,23,0.00,,,0.00,WUHU216HW,2013-01-07 01:40:00,
2013-01-06 18:45:00,58.7,20.6,27.30,NNE,23,2.2,6.3,23,0.00,,,0.00,WUHU216HW,2013-01-07 01:45:00,
2013-01-06 18:50:00,58.5,20.4,27.31,NNE,23,4.0,5.8,23,0.00,,,0.00,WUHU216HW,2013-01-07 01:50:00,
2013-01-06 18:55:00,58.1,21.2,27.31,West,270,1.1,5.8,24,0.00,,,0.00,WUHU216HW,2013-01-07 01:55:00,
2013-01-06 19:00:00,57.6,21.6,27.31,WNW,293,0.2,4.0,25,0.00,,,0.00,WUHU216HW,2013-01-07 02:00:00,
2013-01-06 19:05:00,56.9,23.0,27.31,West,270,0.0,1.3,27,0.00,,,0.00,WUHU216HW,2013-01-07 02:05:00,
2013-01-06 19:10:00,56.2,23.2,27.31,WNW,293,1.3,1.3,28,0.00,,,0.00,WUHU216HW,2013-01-07 02:10:00,
2013-01-06 19:15:00,55.4,21.7,27.31,WSW,248,0.2,1.3,27,0.00,,,0.00,WUHU216HW,2013-01-07 02:15:00,
2013-01-06 19:20:00,55.1,21.3,27.31,SE,135,0.4,1.3,27,0.00,,,0.00,WUHU216HW,2013-01-07 02:20:00,
2013-01-06 19:25:00,54.5,21.9,27.31,SW,225,0.9,1.8,28,0.00,,,0.00,WUHU216HW,2013-01-07 02:25:00,
2013-01-06 19:30:00,54.7,22.1,27.31,SE,135,0.4,2.5,28,0.00,,,0.00,WUHU216HW,2013-01-07 02:30:00,
2013-01-06 19:35:00,54.9,24.0,27.31,NW,315,1.1,3.1,30,0.00,,,0.00,WUHU216HW,2013-01-07 02:35:00,
2013-01-06 19:40:00,54.9,25.5,27.31,West,270,2.9,3.1,32,0.00,,,0.00,WUHU216HW,2013-01-07 02:40:00,
2013-01-06 19:45:00,54.7,24.0,27.31,North,0,0.0,3.1,30,0.00,,,0.00,WUHU216HW,2013-01-07 02:45:00,
2013-01-06 19:50:00,54.4,24.3,27.31,NNW,338,0.7,2.9,31,0.00,,,0.00,WUHU216HW,2013-01-07 02:50:00,
2013-01-06 19:55:00,54.0,23.3,27.31,SE,135,0.0,1.6,30,0.00,,,0.00,WUHU216HW,2013-01-07 02:55:00,
2013-01-06 20:00:00,53.6,23.0,27.31,ESE,113,0.0,1.6,30,0.00,,,0.00,WUHU216HW,2013-01-07 03:00:00,
2013-01-06 20:05:00,53.5,22.0,27.31,SE,135,0.0,0.4,29,0.00,,,0.00,WUHU216HW,2013-01-07 03:05:00,
2013-01-06 20:10:00,53.3,22.7,27.31,East,90,0.0,1.1,30,0.00,,,0.00,WUHU216HW,2013-01-07 03:10:00,
2013-01-06 20:15:00,53.1,22.6,27.31,ESE,113,0.4,2.0,30,0.00,,,0.00,WUHU216HW,2013-01-07 03:15:00,
2013-01-06 20:20:00,53.3,22.7,27.31,SSE,158,0.0,4.0,30,0.00,,,0.00,WUHU216HW,2013-01-07 03:20:00,
2013-01-06 20:25:00,53.3,22.7,27.30,ENE,68,0.0,4.0,30,0.00,,,0.00,WUHU216HW,2013-01-07 03:25:00,
2013-01-06 20:30:00,52.9,22.4,27.30,WSW,248,0.9,1.3,30,0.00,,,0.00,WUHU216HW,2013-01-07 03:30:00,
2013-01-06 20:35:00,52.7,22.2,27.30,SSE,158,0.7,0.9,30,0.00,,,0.00,WUHU216HW,2013-01-07 03:35:00,
2013-01-06 20:40:00,52.4,22.6,27.30,ENE,68,2.0,3.1,31,0.00,,,0.00,WUHU216HW,2013-01-07 03:40:00,
2013-01-06 20:45:00,52.7,23.0,27.30,ENE,68,2.9,3.1,31,0.00,,,0.00,WUHU216HW,2013-01-07 03:45:00,
2013-01-06 20:50:00,53.3,23.4,27.30,SE,135,2.7,6.0,31,0.00,,,0.00,WUHU216HW,2013-01-07 03:50:00,
2013-01-06 20:55:00,53.5,23.6,27.30,East,90,5.6,6.0,31,0.00,,,0.00,WUHU216HW,2013-01-07 03:55:00,
2013-01-06 21:00:00,53.6,23.8,27.30,SE,135,2.5,5.6,31,0.00,,,0.00,WUHU216HW,2013-01-07 04:00:00,
2013-01-06 21:05:00,53.5,23.6,27.30,ESE,113,1.8,5.6,31,0.00,,,0.00,WUHU216HW,2013-01-07 04:05:00,
2013-01-06 21:10:00,53.3,23.4,27.30,ENE,68,2.0,4.0,31,0.00,,,0.00,WUHU216HW,2013-01-07 04:10:00,
2013-01-06 21:15:00,53.1,24.0,27.30,ESE,113,4.3,4.3,32,0.00,,,0.00,WUHU216HW,2013-01-07 04:15:00,
2013-01-06 21:20:00,52.9,23.8,27.30,East,90,2.0,4.5,32,0.00,,,0.00,WUHU216HW,2013-01-07 04:20:00,
2013-01-06 21:25:00,52.7,23.6,27.30,SE,135,1.3,4.5,32,0.00,,,0.00,WUHU216HW,2013-01-07 04:25:00,
2013-01-06 21:30:00,52.4,23.3,27.31,SE,135,1.3,4.0,32,0.00,,,0.00,WUHU216HW,2013-01-07 04:30:00,
2013-01-06 21:35:00,52.2,23.1,27.31,SE,135,0.7,3.4,32,0.00,,,0.00,WUHU216HW,2013-01-07 04:35:00,
2013-01-06 21:40:00,51.8,22.8,27.31,SW,225,0.0,3.4,32,0.00,,,0.00,WUHU216HW,2013-01-07 04:40:00,
2013-01-06 21:45:00,51.3,23.0,27.31,WSW,248,0.0,0.9,33,0.00,,,0.00,WUHU216HW,2013-01-07 04:45:00,
2013-01-06 21:50:00,50.6,22.3,27.31,WSW,248,0.0,0.9,33,0.00,,,0.00,WUHU216HW,2013-01-07 04:50:00,
2013-01-06 21:55:00,50.0,24.6,27.31,WSW,248,0.7,2.0,37,0.00,,,0.00,WUHU216HW,2013-01-07 04:55:00,
2013-01-06 22:00:00,49.1,23.8,27.32,WSW,248,0.2,2.0,37,0.00,,,0.00,WUHU216HW,2013-01-07 05:00:00,
2013-01-06 22:05:00,48.2,23.7,27.32,WSW,248,0.9,1.8,38,0.00,,,0.00,WUHU216HW,2013-01-07 05:05:00,
2013-01-06 22:10:00,47.5,23.0,27.33,SW,225,0.2,1.8,38,0.00,,,0.00,WUHU216HW,2013-01-07 05:10:00,
2013-01-06 22:15:00,47.0,22.6,27.33,SSE,158,0.0,1.8,38,0.00,,,0.00,WUHU216HW,2013-01-07 05:15:00,
2013-01-06 22:20:00,46.6,21.6,27.33,East,90,0.0,0.4,37,0.00,,,0.00,WUHU216HW,2013-01-07 05:20:00,
2013-01-06 22:25:00,46.4,21.4,27.32,ENE,68,1.1,1.8,37,0.00,,,0.00,WUHU216HW,2013-01-07 05:25:00,
2013-01-06 22:30:00,46.3,21.9,27.32,SE,135,1.1,1.8,38,0.00,,,0.00,WUHU216HW,2013-01-07 05:30:00,
2013-01-06 22:35:00,46.3,21.9,27.32,East,90,0.0,1.6,38,0.00,,,0.00,WUHU216HW,2013-01-07 05:35:00,
2013-01-06 22:40:00,46.4,22.1,27.32,ESE,113,0.0,1.6,38,0.00,,,0.00,WUHU216HW,2013-01-07 05:40:00,
2013-01-06 22:45:00,46.4,22.1,27.31,East,90,0.9,1.6,38,0.00,,,0.00,WUHU216HW,2013-01-07 05:45:00,
2013-01-06 22:50:00,46.3,22.6,27.31,East,90,0.9,1.8,39,0.00,,,0.00,WUHU216HW,2013-01-07 05:50:00,
2013-01-06 22:55:00,46.3,22.6,27.32,ESE,113,0.4,1.8,39,0.00,,,0.00,WUHU216HW,2013-01-07 05:55:00,
2013-01-06 23:00:00,46.1,22.4,27.31,ESE,113,1.6,1.6,39,0.00,,,0.00,WUHU216HW,2013-01-07 06:00:00,
2013-01-06 23:05:00,46.1,21.8,27.32,ESE,113,0.2,1.6,38,0.00,,,0.00,WUHU216HW,2013-01-07 06:05:00,
2013-01-06 23:10:00,46.1,22.4,27.32,WSW,248,1.3,1.6,39,0.00,,,0.00,WUHU216HW,2013-01-07 06:10:00,
2013-01-06 23:15:00,45.7,22.8,27.32,SSE,158,0.4,1.6,40,0.00,,,0.00,WUHU216HW,2013-01-07 06:15:00,
2013-01-06 23:20:00,45.4,22.4,27.32,WSW,248,0.0,1.6,40,0.00,,,0.00,WUHU216HW,2013-01-07 06:20:00,
2013-01-06 23:25:00,45.0,22.2,27.31,ESE,113,0.0,0.4,40,0.00,,,0.00,WUHU216HW,2013-01-07 06:25:00,
2013-01-06 23:30:00,44.5,21.6,27.31,ESE,113,0.0,0.4,40,0.00,,,0.00,WUHU216HW,2013-01-07 06:30:00,
2013-01-06 23:35:00,44.5,22.1,27.30,ESE,113,0.0,0.9,41,0.00,,,0.00,WUHU216HW,2013-01-07 06:35:00,
2013-01-06 23:40:00,44.5,22.7,27.30,SE,135,1.1,1.1,42,0.00,,,0.00,WUHU216HW,2013-01-07 06:40:00,
2013-01-06 23:45:00,44.6,22.9,27.30,SE,135,1.1,1.8,42,0.00,,,0.00,WUHU216HW,2013-01-07 06:45:00,
2013-01-06 23:50:00,44.6,23.4,27.31,SE,135,0.2,1.8,43,0.00,,,0.00,WUHU216HW,2013-01-07 06:50:00,
2013-01-06 23:55:00,44.3,22.5,27.31,SE,135,0.0,1.1,42,0.00,,,0.00,WUHU216HW,2013-01-07 06:55:00,